Regional Weather Roundup
Issued by NWS Newport/Morehead, NC

Current Version | Previous Version | Graphics & Text | Print | Product List | Glossary Off
Versions: 1 2 3 4 5 6 7 8 9 10 11 12 13 14 15 16 17 18 19 20 21 22 23 24 25 26 27 28 29 30 31 32 33 34 35 36 37 38 39 40 41 42 43 44 45 46 47 48 49 50

000
ASUS42 KMHX 162214
RWRMHX
WEATHER ROUNDUP FOR EASTERN NORTH CAROLINA
NATIONAL WEATHER SERVICE NEWPORT/MOREHEAD CITY NC
500 PM EST SAT DEC 16 2017

NOTE: "FAIR" INDICATES FEW OR NO CLOUDS BELOW 12,000 FEET
WITH NO SIGNIFICANT WEATHER AND/OR OBSTRUCTIONS TO VISIBILITY

NCZ015>017-031-032-045>047-102-103-162300-
NORTH COAST

CITY           SKY/WX    TMP DP  RH WIND       PRES   REMARKS
EDENTON        CLEAR     46  29  52 SW8       30.21S
ELIZABETH CITY CLEAR     41  28  60 SW6       30.20R
KITTY HAWK     CLEAR     40  24  54 CALM      30.20R
MANTEO         CLEAR     41  29  64 S6        30.21S

$$

NCZ045>047-081-094-103-104-162300-
CENTRAL COAST

CITY           SKY/WX    TMP DP  RH WIND       PRES   REMARKS
FRISCO         CLEAR     41  28  60 W5        30.22R

$$

NCZ095-097-098-100-101-162300-
SOUTHERN COAST

CITY           SKY/WX    TMP DP  RH WIND       PRES   REMARKS
BEAUFORT       PTCLDY    44  32  62 SW6       30.24R
CEDAR ISLAND   NOT AVBL
JACKSONVILLE   CLOUDY    47  27  45 W5        30.24R
PINEY ISLAND     N/A    N/A N/A N/A SW7       30.23R
WILMINGTON     PTCLDY    49  27  42 W8        30.25R


$$

NCZ011>013-027>030-043-044-078>080-089-090>093-098-162300-
COASTAL PLAIN

CITY           SKY/WX    TMP DP  RH WIND       PRES   REMARKS
AHOSKIE        CLEAR     42  26  52 CALM      30.20R
CLINTON        CLEAR     48  27  43 CALM      30.24R
ELIZABETHTOWN  NOT AVBL
GOLDSBORO      CLEAR     45  25  45 SW6       30.21R
GREENVILLE     CLEAR     45  27  49 W5        30.23R
HAVELOCK       CLEAR     43  29  57 W6        30.24R
KENANSVILLE    CLEAR     43  28  56 CALM      30.24R
KINSTON        CLEAR     43  27  52 SW3       30.23R
NEW BERN       CLEAR     43  29  57 CALM      30.24R
RICHLANDS      CLEAR     44  30  57 CALM      30.25R
ROCKY MOUNT    CLEAR     42  26  53 S3        30.21R
WASHINGTON     CLEAR     45  24  45 SW6       30.22R
WHITEVILLE     CLOUDY    49  27  42 CALM      30.24R

$$

AMZ130-135-150-152-154-156-158-170-250-252-270-ANZ085-086-088-633-658-670-162300-
MARINE OBSERVATIONS

STATION/POSITION TIME  TEMP    WIND        PRES    WAVE   SWELL
                       AIR SEA DIR/SP/G            HT/PER HT/PER
                 (UTC) (F)     (DEG/KT/KT) (MB)    (FT/S) (FT/S)
CHESAPEAKE LIGHT NOT AVBL
64 E VA BEACH    2150   45 58  250/ 10/ 14 1022.7    2/ 7   2/ 7
DUCK             2148   43 53  250/  6/  8 1022.5
2 E DUCK         2130      54                N/A     2/ 7
OREGON INLET     2148          190/ 10/ 12   N/A
13E OREGON INLT  2148      58                N/A     3/ 7   3/ 7
HATTERAS CG      2148   41 52  240/  5/  8 1023.0
DIAMOND BUOY     2200   47 73  280/ 10/ 16 1023.5
CAPE LOOKOUT     2200          250/  5/  6 1023.9
BEAUFORT LAB     2148   46 50  250/  3/  5 1023.5
30 SE NEW RVR IN 2108   47 64  280/  6/ 10 1024.0
30 SE NEW RVR IN 2130      64                N/A     2/ 6
27 SE WRIGHTSVLE 2108   48 63  240/  6/ 10 1024.0
5 SE WRIGHTSVLE  2108   47 56  210/  8/ 12 1023.5
225 S CAPE HAT   2150   62 74  330/  6/ 10 1023.0    5/ 7   5/ 7
41 SE CHARLESTON 2200   56 73   70/  4/  6 1024.2

$$




USA.gov is the U.S. government's official web portal to all federal, state and local government web resources and services.